Wind_Speed
6 5 7 8 8 9 10 9 8 9 11 13 9 6 10 9 8 12 9 11 16 11 11 12 11 13 14 12 8 5 11 13 10 10 13 14 12 12 12 12 12 12 11 15 22 23 24 24 23 23 21 20 20 21 22 22 21 21 20 19 18 15 14 15 14 15 16 15 15 16 16 15 13 11 11 10 10 12 14 14 15 15 15 15 16 16
7 8 9 8 7 8 10 10 9 10 13 14 9 5 7 7 9 14 10 14 18 10 11 13 10 11 13 10 7 6 10 13 11 10 16 17 13 12 13 13 12 10 11 14 16 18 22 22 22 22 21 19 18 19 21 20 20 20 19 19 18 16 15 13 13 14 15 13 14 16 16 14 14 13 13 12 13 13 14 15 16 16 15 15 17 17
8 8 9 8 7 6 8 11 12 13 12 11 8 6 6 6 8 12 9 17 18 8 8 12 9 9 11 10 8 9 8 9 8 12 20 19 14 13 13 13 12 12 12 12 11 13 18 21 20 20 21 20 18 18 20 18 18 18 17 17 16 15 14 13 12 11 11 10 11 12 14 12 11 13 14 13 13 15 17 17 17 17 17 17 17 17
7 7 8 9 8 9 9 11 13 13 11 8 6 5 5 8 8 8 6 16 16 7 8 12 8 5 7 7 7 12 10 7 6 14 20 19 16 16 15 14 15 15 14 12 11 10 15 18 18 17 18 19 17 16 18 18 17 18 16 15 15 13 12 12 11 9 7 8 8 8 10 10 8 9 12 12 14 17 18 18 19 19 19 19 19 19
7 6 9 11 11 13 12 11 12 9 8 8 7 6 7 10 11 9 5 13 12 6 6 9 5 4 5 3 4 9 9 7 7 12 17 15 15 15 13 13 13 15 14 13 12 10 12 15 16 18 18 18 16 15 16 16 16 17 15 14 13 11 10 10 10 7 5 5 6 6 7 7 7 7 10 13 16 17 18 18 19 21 21 21 20 21
8 9 12 14 14 15 13 11 11 9 7 8 8 10 11 12 14 11 3 9 7 5 4 8 6 5 4 6 8 6 6 9 7 11 16 15 14 14 12 10 9 10 11 11 12 10 11 14 17 18 17 17 15 13 13 12 14 15 14 13 11 10 9 8 7 6 4 4 4 6 7 7 9 10 14 17 18 18 19 18 19 20 21 21 21 22
8 11 14 16 15 15 14 11 12 11 7 7 7 9 13 15 16 13 4 5 5 5 6 8 8 3 2 4 8 8 9 9 7 12 16 14 13 12 11 10 9 9 9 9 10 9 10 13 15 15 15 16 15 13 12 12 13 13 12 11 10 10 9 7 6 5 5 5 5 6 7 9 10 12 15 17 17 18 19 18 18 18 19 20 21 22
8 12 13 17 15 13 12 10 11 11 7 6 6 8 12 14 15 13 7 4 6 4 5 5 7 3 1 4 6 10 11 7 10 15 14 12 13 12 11 11 10 9 9 9 9 8 8 11 14 14 15 17 16 15 13 12 11 10 9 9 8 8 7 6 6 6 5 6 6 5 6 8 9 10 11 13 14 15 16 17 17 18 20 20 21 21
10 14 13 15 15 10 9 10 11 11 8 5 6 9 11 11 11 9 6 4 5 5 3 4 5 4 3 5 6 10 11 9 12 17 15 12 14 13 12 12 11 10 10 9 9 8 9 11 15 17 18 17 17 15 13 11 10 7 6 6 6 5 6 6 6 7 6 6 6 4 4 5 7 9 10 10 9 10 10 12 13 16 18 18 18 17
9 14 14 12 12 9 9 10 11 11 8 5 8 10 9 8 7 6 6 3 2 5 5 7 6 4 4 3 6 8 9 10 10 13 14 13 13 12 11 12 12 11 10 10 10 9 11 13 15 18 18 17 16 13 11 10 7 5 4 4 4 3 4 5 6 6 5 5 6 5 5 6 7 9 10 10 6 5 6 9 11 13 16 17 16 12
8 12 13 10 9 10 10 9 11 13 10 6 9 9 7 7 4 3 4 1 3 2 6 9 10 7 4 4 6 7 8 12 11 12 13 14 14 12 10 9 10 10 9 10 10 9 11 13 14 16 15 14 13 10 9 8 6 5 3 2 2 2 3 3 4 4 4 4 5 5 6 7 8 9 10 11 10 10 11 12 13 14 15 16 15 13
10 10 11 8 8 11 12 10 10 13 11 6 7 7 5 5 1 1 2 3 4 4 6 9 10 9 5 4 3 5 6 12 17 17 17 17 16 12 10 8 8 9 9 10 10 8 9 10 11 12 11 11 11 9 8 7 6 5 3 3 4 4 4 4 3 1 0 1 3 4 5 7 8 9 10 10 11 12 13 14 15 14 15 15 15 15
9 8 9 10 10 10 11 9 8 9 9 6 5 5 4 3 2 3 3 2 4 4 7 11 10 7 5 1 4 7 4 12 17 18 19 20 18 14 12 9 7 7 8 8 8 7 6 6 8 10 11 12 12 10 9 8 8 8 8 8 10 11 10 10 8 7 7 6 5 3 3 3 4 5 6 7 9 10 12 13 14 15 15 14 14 15
6 7 9 12 10 9 10 8 6 7 7 7 7 5 5 4 3 4 4 3 3 3 6 12 10 4 2 3 9 6 7 13 13 15 17 18 18 16 14 11 8 7 8 7 7 6 5 6 9 11 12 14 14 13 12 12 12 11 11 12 12 13 12 12 11 10 10 10 9 8 7 6 6 6 7 8 8 9 10 12 14 15 14 13 13 15
7 7 8 11 8 8 11 9 8 8 8 7 7 5 5 4 4 4 3 4 4 3 4 8 6 1 1 2 10 8 11 14 14 14 15 15 15 15 14 12 10 9 8 7 7 7 6 8 11 12 14 16 16 14 13 14 13 11 12 13 13 14 13 12 13 12 12 12 10 10 10 8 8 9 9 10 11 11 12 12 14 14 14 13 13 16
8 6 7 10 8 8 10 9 8 9 7 5 5 6 5 4 4 4 4 5 6 2 2 2 2 2 2 2 7 9 11 14 16 15 16 15 13 13 13 11 10 9 8 8 8 7 7 10 12 13 15 15 14 13 12 12 12 11 11 12 13 13 13 12 12 13 13 13 11 11 11 11 11 11 12 13 13 13 12 11 12 12 12 13 14 16
6 6 7 10 9 8 10 9 7 8 7 4 5 7 7 6 4 4 4 4 5 2 3 2 4 2 3 3 7 7 10 11 12 13 15 14 13 13 11 9 9 8 8 7 7 6 7 9 12 13 13 13 12 11 11 11 11 11 10 11 11 11 12 12 11 12 13 12 12 13 12 12 13 13 14 14 14 14 13 12 11 12 13 14 15 16
5 3 6 11 11 9 8 8 7 5 5 5 5 6 4 5 3 3 3 4 4 2 3 3 8 6 4 2 3 4 8 8 9 12 13 13 13 12 10 10 10 9 8 7 6 7 8 8 10 12 12 11 10 10 9 8 7 7 7 7 8 10 11 11 11 12 13 13 13 14 14 14 14 14 15 15 15 15 15 15 13 13 14 15 16 17
4 1 4 7 10 8 5 4 4 6 4 4 4 5 5 4 5 3 3 5 5 4 1 2 8 7 4 5 7 8 9 9 9 11 12 13 12 11 10 11 11 9 8 7 6 6 7 7 10 13 12 9 7 7 8 7 6 7 7 7 7 9 11 10 11 14 14 14 15 15 15 15 16 15 15 15 16 16 16 16 16 15 16 16 17 18
4 2 3 4 3 4 5 3 3 6 7 5 4 4 6 4 4 4 4 5 5 4 3 2 3 2 2 6 13 15 15 14 13 12 12 12 11 10 10 10 9 9 7 6 6 5 5 8 11 13 11 9 10 10 9 9 9 9 8 10 11 12 13 12 13 15 15 15 16 16 16 17 16 16 15 15 15 16 16 17 18 16 16 17 18 18
3 3 1 5 8 3 3 4 7 8 7 6 5 4 7 5 4 4 3 3 5 4 4 3 2 3 1 4 11 13 13 13 12 12 11 11 11 10 9 9 8 8 7 7 6 5 6 9 12 14 14 14 14 13 11 11 11 10 11 14 15 15 14 14 15 15 16 15 16 17 18 17 16 15 14 14 15 16 16 18 18 16 15 17 17 16
2 3 2 3 5 4 3 3 8 10 7 7 5 4 7 6 5 5 4 2 4 4 5 5 3 4 3 2 8 10 11 11 12 13 12 10 11 10 9 9 8 8 7 6 6 6 7 10 13 13 12 12 14 15 14 13 13 14 15 16 16 15 15 14 14 14 14 15 16 17 17 16 16 15 15 16 17 18 18 18 18 17 17 18 18 16
4 4 3 2 3 4 8 9 9 10 9 8 7 5 5 5 5 6 5 4 3 3 5 5 3 3 5 3 6 9 10 12 12 13 13 11 10 10 10 9 9 8 7 6 6 6 8 11 14 13 11 10 13 16 16 16 17 16 15 16 15 15 15 13 13 13 14 15 16 16 15 15 16 17 18 19 19 19 18 18 18 18 18 18 17 16
3 4 4 2 3 5 9 13 11 11 9 7 8 6 4 4 4 6 5 4 4 5 5 4 2 2 4 5 7 9 9 11 10 11 14 11 9 10 10 9 8 8 6 5 4 4 7 11 12 11 11 12 13 15 17 18 17 15 15 15 14 14 14 13 13 15 16 17 17 16 17 18 19 19 20 20 19 19 19 19 18 18 18 18 17 16
2 2 4 3 1 3 5 8 7 10 9 3 3 5 6 5 4 4 2 2 2 5 4 5 1 1 2 5 10 12 12 12 10 10 12 11 9 9 8 8 7 7 5 3 3 4 6 8 9 10 10 9 12 17 18 17 15 14 14 14 14 14 14 15 16 17 18 19 17 17 19 20 20 21 22 21 21 20 20 20 20 19 18 18 17 16
3 3 5 5 4 5 4 3 3 5 6 2 0 4 9 9 6 5 3 2 2 3 2 6 4 3 6 9 13 15 15 14 12 11 10 10 10 9 7 7 6 5 4 4 5 6 6 7 9 11 10 10 13 16 16 16 14 14 15 17 18 17 17 19 18 17 19 18 17 19 21 20 21 22 23 22 22 21 20 20 20 20 20 19 19 18
4 3 6 6 6 5 3 4 3 3 2 2 2 5 10 11 9 5 4 4 5 2 4 3 10 11 8 11 14 13 13 14 13 12 11 10 10 9 7 6 5 3 4 5 6 6 7 7 8 10 10 12 16 16 15 16 16 16 17 19 19 18 18 18 16 17 19 19 18 21 22 21 21 22 22 22 22 21 21 20 19 20 20 21 21 21
5 3 7 8 6 5 4 3 4 5 4 4 3 7 11 13 12 8 4 5 6 6 2 3 13 16 11 12 15 13 13 13 12 12 12 10 10 9 8 7 6 4 5 6 6 7 7 6 7 10 13 13 16 15 14 16 17 17 18 18 18 18 17 17 17 18 20 20 21 22 22 21 21 21 21 21 22 22 22 21 21 20 20 21 22 22
5 3 6 8 4 3 2 2 5 4 4 7 8 6 8 9 8 6 5 4 5 7 6 9 14 16 12 12 13 13 12 13 12 12 12 11 10 10 10 9 7 6 6 7 6 6 7 6 6 10 13 14 15 13 12 15 17 17 17 16 16 17 17 18 20 21 22 22 22 22 22 22 21 21 20 20 22 22 22 22 22 22 22 22 23 23
4 2 1 5 3 3 3 4 7 5 5 6 9 10 7 4 6 4 4 8 10 9 12 14 14 10 8 10 12 12 12 12 12 11 12 12 11 11 11 10 8 7 7 7 7 6 7 7 8 10 13 14 13 11 10 11 14 16 17 16 16 18 19 20 22 23 23 22 22 21 21 21 21 20 20 21 22 21 21 22 23 23 24 23 23 24
4 2 2 5 5 3 5 5 6 5 7 7 8 11 9 8 11 9 7 10 13 11 12 15 13 6 4 6 9 10 12 13 13 12 12 12 11 11 11 10 8 8 7 7 8 8 8 8 10 12 14 12 10 9 8 8 11 15 16 17 20 21 21 22 24 24 22 21 20 21 21 20 20 20 21 22 22 21 20 21 23 24 24 23 23 24
4 3 1 5 5 3 3 2 2 3 8 9 8 9 9 6 6 7 6 6 10 14 15 13 9 4 5 9 9 8 11 14 15 14 11 10 10 10 11 10 9 8 8 8 9 9 8 8 9 11 12 11 9 10 10 10 13 15 16 20 24 24 23 24 24 24 22 20 20 21 21 21 20 20 21 22 21 20 20 21 24 25 25 24 24 24
4 4 3 4 3 2 3 2 2 3 5 3 3 5 6 5 5 9 9 8 7 12 12 8 6 6 9 13 12 9 10 12 12 12 11 10 10 10 10 10 9 8 8 8 9 9 8 7 8 9 10 10 11 14 14 15 18 19 20 23 25 25 25 25 25 23 21 20 20 21 21 21 21 20 21 21 20 20 21 23 25 26 26 26 26 27
4 5 4 4 3 1 4 3 1 3 2 3 2 5 4 4 9 10 9 7 6 7 7 8 11 11 10 12 13 11 8 7 7 7 8 10 10 9 10 9 9 9 10 10 9 9 8 7 7 10 12 13 14 17 18 19 22 24 25 25 26 25 26 26 25 23 21 21 21 21 21 20 21 21 21 20 21 21 22 23 25 26 26 27 28 30
4 5 3 3 4 2 3 3 1 2 3 3 3 5 0 10 16 15 12 8 7 11 15 15 14 13 12 10 11 12 10 9 9 8 7 9 9 9 9 9 9 10 10 9 8 8 7 8 10 14 15 15 15 17 20 23 24 25 25 26 27 26 25 25 24 23 22 21 21 21 21 20 20 20 21 21 21 22 23 23 24 25 26 27 29 29
4 4 2 3 4 2 1 2 1 3 2 3 4 4 2 8 11 13 12 9 6 8 15 15 12 12 15 13 10 11 12 13 12 8 6 8 9 8 9 8 9 10 9 9 9 8 8 10 14 15 14 15 17 18 21 24 25 25 25 26 27 27 25 24 23 22 21 22 21 21 20 19 19 20 20 21 22 22 22 23 24 25 25 27 29 30
3 4 3 3 3 2 3 2 1 0 1 3 3 2 0 2 3 6 6 4 5 4 10 15 13 11 13 13 10 11 13 13 11 6 6 7 10 9 9 10 11 12 12 13 12 10 10 13 15 14 13 18 22 23 24 26 25 26 26 26 26 27 25 24 23 22 21 22 21 20 20 20 19 20 21 22 22 22 22 22 23 24 25 27 29 31
5 3 4 3 0 1 4 3 1 1 1 3 3 3 1 4 2 6 7 2 2 3 7 15 16 13 12 12 11 12 12 11 7 1 3 5 9 9 10 12 15 15 15 14 13 12 14 16 14 12 12 18 23 25 25 25 25 26 26 26 26 26 25 24 23 21 21 21 21 20 20 20 20 20 21 22 22 23 23 23 23 22 23 26 28 30
7 4 4 5 2 2 4 4 2 2 2 1 1 1 3 2 2 4 6 1 4 5 6 11 15 14 12 12 11 11 10 7 5 3 2 4 7 8 8 10 13 15 13 12 12 14 16 15 14 13 15 19 23 25 24 24 25 25 24 24 26 26 26 25 23 21 21 21 20 19 19 20 20 21 22 22 22 22 22 23 23 22 23 24 25 26
5 4 3 5 3 2 3 3 1 1 1 2 3 3 3 1 2 4 3 4 7 9 8 10 13 12 11 11 9 6 5 6 7 5 5 5 7 9 9 10 11 11 10 9 11 15 17 16 17 19 20 22 23 23 23 23 24 24 23 23 25 26 26 25 23 23 24 23 23 21 20 20 21 21 22 23 23 23 23 23 23 24 25 25 25 26
4 3 3 4 3 2 3 3 1 1 1 1 2 3 3 3 3 3 4 5 9 11 9 10 13 12 11 10 6 2 2 6 9 8 7 6 7 10 12 13 13 10 7 8 13 18 21 21 21 20 20 21 22 22 21 23 24 24 24 24 25 25 26 25 23 25 27 28 27 26 24 23 22 22 23 24 25 25 25 24 25 25 26 27 28 29
2 1 2 2 3 2 3 3 1 0 1 2 2 2 4 3 0 2 2 6 12 12 9 11 11 10 10 7 5 5 8 11 11 9 8 8 8 8 11 13 12 9 8 12 17 20 21 20 20 20 20 20 20 19 18 21 24 26 27 25 24 25 25 24 22 23 26 28 29 29 28 27 25 25 25 26 27 28 27 25 25 26 26 27 29 31
3 2 2 1 2 2 2 3 2 2 1 3 3 1 1 2 2 3 7 10 11 10 10 10 9 9 9 9 9 10 13 14 12 9 9 9 8 9 11 11 9 8 11 17 19 19 20 20 20 21 21 20 19 18 17 20 23 26 28 26 25 25 25 23 22 23 24 26 28 29 29 30 29 28 28 28 28 29 28 27 26 26 26 26 28 30
1 1 2 1 1 1 2 2 1 0 3 2 1 2 2 2 3 6 8 8 7 8 8 8 8 10 11 12 12 12 13 13 12 10 9 9 8 9 10 10 8 9 13 19 20 19 19 20 21 22 22 22 22 21 21 22 23 24 26 26 24 24 24 23 23 24 25 26 27 28 29 30 31 31 30 30 30 31 30 28 27 28 28 28 29 30
1 2 5 2 1 3 4 2 2 1 4 5 6 6 7 9 9 9 10 9 6 7 7 8 10 11 12 14 14 12 11 12 12 10 9 9 8 8 9 9 10 12 16 18 19 19 19 20 22 23 22 22 22 22 24 25 25 24 24 26 26 25 26 26 27 27 27 27 27 28 29 30 31 32 32 31 32 32 31 29 28 28 28 29 29 29
2 5 7 5 4 6 6 3 3 6 7 8 8 7 8 10 10 9 10 9 7 7 8 9 10 11 12 13 13 11 10 11 11 11 9 8 8 8 9 10 11 14 16 17 18 19 20 21 21 21 21 21 20 19 20 23 25 25 24 27 28 28 28 28 29 28 27 27 27 28 30 32 31 31 32 33 33 33 31 30 30 29 28 28 28 28
2 5 6 4 5 4 4 2 4 8 7 7 8 8 8 10 9 8 8 8 8 9 10 10 11 12 11 11 13 13 12 11 11 11 9 8 7 8 9 10 11 13 14 15 19 22 21 20 19 19 20 20 19 19 20 20 22 24 23 24 25 24 23 25 28 28 28 27 28 29 31 32 33 34 34 34 34 35 34 33 33 32 31 30 29 29
1 6 6 4 3 4 4 4 6 9 8 7 7 6 7 10 11 10 9 10 10 10 10 11 12 11 9 10 12 13 13 11 11 11 9 7 7 9 10 11 13 13 13 15 20 21 19 17 17 17 18 19 19 20 21 20 19 19 19 19 19 19 19 20 24 27 28 28 28 29 31 33 34 36 36 36 35 35 34 34 33 33 32 31 30 30
0 5 5 4 6 6 5 6 8 9 8 7 8 7 7 9 11 11 11 11 12 11 11 11 11 10 11 12 11 11 13 12 10 11 10 8 8 10 12 14 15 16 16 18 19 18 17 16 15 15 17 18 18 18 19 20 19 17 16 16 16 18 20 20 20 22 25 27 28 29 30 32 34 35 36 36 36 35 33 33 33 33 32 30 30 30
4 5 4 6 6 3 4 6 7 6 5 5 7 9 9 10 12 12 11 11 11 11 11 12 12 12 13 14 13 11 11 11 11 11 11 9 10 13 15 16 17 17 19 20 20 19 18 17 15 15 16 17 17 17 18 19 19 18 17 16 15 18 22 23 22 22 23 25 27 28 29 30 30 32 34 35 35 35 33 32 32 32 32 31 29 29
3 1 2 5 6 4 7 8 6 5 6 7 8 9 9 10 11 10 10 11 11 11 12 13 13 12 11 13 15 13 10 11 14 14 11 10 14 16 17 18 18 18 20 21 21 20 18 16 16 17 17 17 17 19 19 19 18 18 19 18 17 17 19 22 25 26 24 24 24 25 27 28 29 29 30 31 33 34 34 32 31 30 30 29 28 27
Wind_Direction
198 213 218 211 203 202 205 212 216 221 234 241 232 201 203 216 238 250 242 181 170 180 209 212 207 213 227 239 254 218 161 162 177 153 140 151 148 143 142 138 135 130 130 127 126 130 134 136 138 140 141 141 144 149 152 156 157 158 159 163 162 160 159 159 161 164 169 172 171 178 185 192 205 218 226 231 225 220 224 226 226 228 226 225 226 225
202 215 221 211 202 197 195 213 230 235 242 244 249 244 223 218 224 243 237 178 173 177 201 212 209 209 221 230 231 209 169 166 183 155 140 152 151 143 140 134 129 124 125 123 125 134 136 138 141 141 144 148 152 154 157 159 158 157 157 159 159 158 161 161 164 168 173 177 178 185 191 195 204 213 220 228 232 229 228 228 230 231 228 226 227 227
211 221 213 202 202 211 202 207 221 237 247 244 253 263 255 253 234 246 230 177 176 176 191 204 206 211 220 226 222 205 182 177 179 144 143 151 147 144 140 135 134 129 129 127 129 133 133 137 141 143 147 153 160 161 160 162 158 156 157 155 155 157 163 165 164 170 176 177 176 179 183 187 200 209 217 229 236 237 234 231 231 232 232 230 229 228
209 212 196 195 199 216 219 211 213 229 247 244 243 246 256 261 251 262 223 173 175 173 175 191 202 216 218 235 223 193 180 183 165 134 142 150 147 150 148 143 144 139 136 133 133 131 127 132 138 143 149 154 161 160 159 162 158 156 155 152 153 155 160 164 163 162 170 185 186 177 178 183 188 196 207 223 233 232 231 230 229 230 235 235 231 229
207 185 185 200 202 210 219 220 212 213 237 243 235 231 248 257 256 261 204 161 173 187 166 171 194 261 223 201 197 185 163 158 154 125 133 145 142 143 142 142 143 139 139 137 136 135 128 130 132 137 145 148 152 152 153 157 155 154 152 150 153 150 149 158 168 164 146 161 182 186 190 196 208 212 209 220 228 226 227 231 230 230 234 236 234 233
212 183 184 204 207 208 214 221 215 200 218 243 236 228 240 255 261 264 193 136 159 213 197 156 168 270 250 168 174 179 138 147 150 123 132 140 136 135 132 130 126 121 126 128 131 134 130 130 131 136 141 140 139 143 145 146 146 147 145 144 146 145 144 145 161 180 161 139 166 188 194 199 215 223 217 221 227 227 229 235 237 235 235 236 237 237
213 194 187 199 206 207 211 220 218 201 201 234 226 218 238 251 258 272 268 145 158 215 217 156 151 248 284 175 175 152 140 151 126 113 132 137 132 131 125 120 116 109 110 113 121 127 128 130 132 135 135 130 129 132 135 135 136 140 141 143 143 141 144 139 147 179 181 173 182 193 205 215 223 229 231 234 236 236 236 240 243 242 240 240 240 240
201 209 197 193 202 208 208 216 214 203 202 225 218 212 236 246 249 270 282 198 171 185 220 164 128 135 256 239 191 147 145 144 106 112 129 132 127 121 113 113 109 109 111 113 119 117 116 122 123 121 118 121 125 126 129 130 131 135 139 146 146 141 148 153 160 174 176 182 196 209 224 235 243 248 255 256 248 243 242 241 243 244 245 245 245 246
186 217 213 190 196 208 207 209 207 207 213 216 221 229 239 242 244 260 266 224 171 142 217 218 126 117 259 253 195 156 152 146 124 126 131 126 120 113 108 109 101 100 104 105 109 101 96 102 108 112 113 118 123 125 130 133 130 128 130 138 140 144 160 168 173 181 179 185 202 225 243 255 270 274 282 286 262 245 244 244 245 247 248 248 250 255
184 215 224 200 193 203 208 205 199 211 221 199 218 244 254 246 242 246 242 242 139 139 201 211 158 151 257 240 187 172 162 157 134 125 128 118 110 106 107 111 106 101 99 98 98 91 91 96 103 111 115 121 125 127 131 131 130 133 137 145 149 164 183 180 182 189 188 192 203 220 236 252 276 284 290 303 297 269 267 262 259 259 259 260 264 273
204 204 223 223 194 190 201 206 200 212 215 181 209 244 271 261 239 230 240 90 73 237 221 199 176 171 233 249 190 182 176 160 130 118 127 117 108 107 102 102 103 104 106 104 99 93 95 98 103 110 115 120 122 122 120 117 122 130 140 168 183 206 200 174 181 197 210 217 221 233 242 249 266 282 290 301 309 307 304 295 287 282 279 280 283 288
229 202 210 230 210 184 188 205 206 210 210 182 198 224 250 273 270 206 285 79 109 257 239 200 185 176 211 262 234 234 207 155 133 132 137 127 120 117 105 97 96 103 107 105 105 106 104 104 106 108 108 106 106 107 109 113 115 104 86 64 59 64 67 68 76 85 93 262 259 255 258 264 273 288 297 304 311 312 312 308 305 300 293 293 293 293
239 220 201 216 229 200 183 197 202 202 206 191 193 195 191 241 229 194 236 154 162 239 225 192 185 190 192 222 305 285 208 145 138 141 140 135 130 124 117 112 101 100 104 104 109 111 109 110 109 104 97 92 91 90 90 93 93 82 69 64 59 54 52 50 47 46 41 33 20 356 337 330 325 326 324 326 327 322 319 316 315 313 308 306 300 293
237 248 211 204 222 213 189 186 185 190 200 200 199 178 163 184 197 195 207 188 180 253 222 183 179 214 165 36 338 342 110 123 127 128 128 129 127 123 121 117 107 100 98 95 93 91 91 94 96 97 92 87 82 77 75 75 77 75 65 60 55 47 42 43 42 40 37 34 30 25 24 20 10 0 347 343 341 334 328 321 316 315 314 313 305 297
208 240 216 199 204 204 198 191 176 179 190 204 204 177 167 175 174 185 181 164 179 248 246 185 175 291 81 357 339 15 82 99 102 105 107 108 111 114 113 109 105 99 95 94 89 86 86 86 87 87 83 81 78 73 71 68 67 68 60 54 51 43 37 38 38 37 33 26 23 23 21 15 4 358 351 344 340 335 328 319 315 315 316 315 310 307
203 230 218 203 201 192 203 204 173 166 179 198 194 188 207 194 151 163 180 160 156 192 272 183 129 26 92 50 4 35 70 87 98 101 102 103 103 106 106 106 106 104 103 102 97 93 86 83 82 80 78 78 77 74 71 68 65 63 56 49 45 37 31 30 31 33 30 23 22 23 18 15 11 4 356 350 346 342 336 329 326 326 325 322 318 314
189 234 222 198 202 200 207 216 184 159 169 187 195 200 218 210 144 118 185 170 120 139 246 140 99 79 120 53 10 40 73 84 96 100 102 105 105 105 106 107 105 102 101 97 100 101 85 79 81 83 87 87 83 77 70 67 62 56 51 47 43 37 33 30 28 29 29 24 21 18 14 14 14 7 2 360 358 355 353 350 345 336 327 321 320 320
150 244 234 193 204 215 206 210 208 188 164 163 195 199 209 236 210 116 146 171 127 157 257 122 130 157 162 124 354 59 91 93 98 102 104 105 106 108 108 108 106 102 102 100 102 100 90 93 96 92 89 85 82 80 75 71 62 56 61 59 50 46 44 38 32 29 28 27 23 19 18 17 14 9 6 2 357 354 352 352 348 339 329 322 323 327
117 43 274 208 208 209 176 167 222 254 229 181 201 193 168 210 233 191 155 170 164 182 276 99 144 168 174 160 160 151 141 132 120 114 112 110 112 113 110 111 112 113 115 112 107 101 102 113 106 94 88 86 100 109 101 96 93 88 84 78 65 55 49 42 36 30 28 28 24 22 23 22 18 14 10 4 357 355 355 352 347 340 332 328 329 330
115 101 286 273 273 204 172 145 200 242 240 230 249 220 185 181 192 196 186 164 160 175 181 130 158 207 214 171 171 168 160 153 143 132 122 117 117 116 115 118 118 120 120 113 109 106 113 122 118 119 134 151 152 137 118 101 91 86 78 73 68 59 52 47 41 35 30 28 25 24 24 22 19 14 8 3 357 357 356 349 345 342 334 329 329 330
100 103 204 304 339 334 194 178 196 214 220 223 236 215 204 202 179 197 220 165 146 161 164 152 209 254 267 177 181 171 156 151 143 132 126 122 120 117 116 119 118 117 115 115 122 125 133 140 144 153 165 171 160 137 121 110 95 83 74 69 62 53 48 47 43 36 30 28 27 25 24 20 17 13 7 3 0 360 357 350 349 347 338 331 330 331
116 113 157 286 329 316 281 218 205 213 211 207 219 209 197 192 173 192 243 203 143 151 163 150 182 244 295 238 186 166 146 143 136 128 126 123 121 116 112 114 114 113 117 127 136 141 152 155 154 155 157 159 154 139 124 112 97 83 73 66 59 51 49 48 45 38 31 32 30 25 24 21 17 15 11 6 4 2 359 355 353 350 343 336 332 332
131 118 139 254 287 285 289 286 249 228 223 221 234 227 185 172 160 166 212 222 181 183 172 136 144 237 307 323 163 147 133 134 131 127 125 120 117 113 110 112 112 114 124 139 145 154 163 155 150 148 131 116 129 134 121 102 91 84 75 68 62 56 55 52 46 42 41 41 36 30 27 22 17 15 12 8 7 7 5 1 357 353 350 343 336 336
124 110 141 214 301 307 293 296 275 235 227 235 239 231 196 190 173 155 172 183 174 202 177 113 104 237 335 27 100 103 104 114 117 122 122 116 112 109 109 112 114 120 128 141 150 155 150 141 138 137 123 107 110 113 105 95 87 82 75 72 67 59 55 52 48 49 48 44 40 33 26 22 20 18 16 13 13 15 14 10 4 0 358 353 346 344
142 130 124 122 324 295 291 309 282 223 214 227 246 242 233 222 188 171 183 102 158 222 167 115 134 205 74 83 101 102 106 110 110 116 117 114 113 108 110 114 114 117 120 123 116 94 102 109 100 95 95 93 101 103 100 96 91 84 79 75 66 57 51 50 49 51 49 44 40 32 24 23 25 23 22 21 20 22 22 17 13 11 9 5 358 352
122 158 129 121 180 207 214 250 253 214 206 205 337 263 247 240 220 187 162 120 214 251 96 112 140 127 108 113 114 116 121 121 118 118 112 112 115 111 113 117 107 106 119 116 98 83 80 81 78 79 70 65 87 101 103 100 93 85 81 71 62 57 55 53 51 50 49 46 39 30 24 26 29 28 27 26 26 26 23 18 16 16 18 17 12 5
93 156 145 139 180 201 212 247 303 7 19 253 262 269 258 248 234 192 131 163 189 111 36 134 140 128 129 130 126 128 130 128 129 127 122 120 121 120 120 115 102 106 117 99 84 78 75 69 69 67 57 65 83 89 91 93 88 82 78 69 63 62 57 52 51 52 52 49 39 30 28 31 32 31 30 29 28 25 22 18 15 15 19 22 19 14
83 154 159 156 189 229 229 257 325 6 19 355 306 267 260 251 239 216 170 184 166 106 38 201 141 134 148 146 138 142 139 134 134 133 130 128 128 130 129 124 120 112 94 85 84 82 78 69 62 53 46 61 82 80 76 84 85 80 76 70 66 65 58 54 57 57 53 48 39 32 31 35 36 33 32 31 27 24 22 22 20 19 22 26 25 21
101 138 167 167 196 292 279 316 347 16 40 23 14 334 285 264 247 222 179 162 139 127 158 177 148 139 148 146 141 143 139 134 134 132 128 127 129 133 131 129 129 119 105 104 101 91 82 72 64 57 50 58 68 61 64 83 87 82 79 78 74 69 64 62 60 55 51 46 40 35 34 36 37 35 36 35 30 27 26 25 24 26 28 31 32 30
103 54 63 137 133 328 328 350 360 30 69 35 12 5 359 53 75 73 103 98 95 116 141 144 135 125 131 140 139 138 133 127 125 125 125 128 134 139 137 134 134 127 121 116 104 93 87 71 53 48 48 53 54 43 43 66 82 84 84 85 81 73 69 68 63 56 51 46 41 38 37 38 38 37 38 39 35 31 28 27 28 32 33 34 35 34
82 65 9 75 81 319 321 12 19 50 86 66 15 6 18 66 81 76 81 88 90 101 117 122 118 98 79 106 115 123 129 125 123 125 127 133 141 142 136 132 129 121 112 107 99 86 74 59 43 33 29 32 39 37 34 53 81 89 90 88 82 75 70 67 63 58 51 45 42 40 38 38 40 41 41 41 38 34 31 32 34 36 36 35 34 34
76 126 26 62 76 315 311 80 96 107 96 69 22 360 3 29 79 83 69 75 106 121 120 115 116 120 116 107 102 114 127 127 128 130 131 137 142 139 132 125 121 117 110 103 94 82 67 52 37 21 10 13 31 43 52 76 87 84 86 87 80 72 68 65 62 57 50 44 42 41 38 39 41 44 45 43 40 37 36 37 39 39 37 35 34 36
83 120 106 83 87 336 316 194 169 108 105 82 350 316 328 6 73 82 67 56 92 125 133 135 137 139 133 126 122 125 127 126 129 134 138 140 136 130 127 122 117 110 101 93 85 77 69 55 33 11 2 15 38 46 54 71 75 70 78 85 77 69 67 65 60 55 49 44 42 40 39 41 42 44 46 44 40 40 40 40 41 41 40 39 40 44
93 110 117 104 107 303 302 301 34 78 158 201 251 278 294 63 83 82 69 55 66 93 106 116 123 125 125 125 124 120 115 108 106 112 121 128 128 124 119 114 107 99 90 87 85 79 71 58 34 27 32 37 45 51 57 66 68 68 75 79 73 68 66 62 59 54 48 43 42 41 42 44 44 43 45 45 43 44 45 45 45 45 44 43 44 45
98 86 95 93 110 172 297 340 77 171 227 241 281 292 330 100 94 82 62 41 66 101 105 108 118 119 107 102 108 108 100 86 73 63 81 102 108 111 109 100 96 98 93 88 85 80 78 66 47 45 47 44 46 56 63 67 67 69 73 75 70 66 63 59 58 54 48 44 43 42 44 46 46 45 46 47 48 49 50 50 49 49 48 47 46 45
103 105 104 75 90 122 40 29 160 207 267 302 314 319 78 103 94 80 61 28 31 103 117 114 111 111 107 106 109 109 101 88 70 43 47 81 86 89 95 93 91 93 94 96 99 102 98 79 63 60 55 47 51 62 68 69 68 67 70 71 68 64 60 57 56 52 49 46 44 42 44 48 49 49 49 50 51 52 53 54 52 52 53 52 50 49
61 112 111 66 51 111 106 71 30 82 313 305 306 302 36 59 67 92 87 29 11 71 119 116 108 108 113 117 121 117 106 93 78 34 11 61 82 84 87 93 96 98 100 108 116 117 102 85 80 82 74 62 63 69 72 71 69 68 69 70 68 64 59 55 52 50 48 47 46 45 47 50 52 52 53 54 53 53 54 57 57 57 57 56 54 52
35 88 126 116 111 159 121 109 62 126 214 246 236 234 328 1 26 105 103 65 17 68 117 124 125 127 126 127 133 128 112 97 96 83 348 65 90 93 92 96 102 108 115 123 126 114 100 97 98 95 80 71 72 74 74 72 71 71 73 73 71 67 62 56 52 51 50 49 50 50 52 56 56 56 57 57 56 56 57 60 61 61 61 61 59 56
43 39 87 103 132 187 130 126 160 181 214 282 280 136 84 17 323 83 89 169 173 134 123 126 129 133 136 141 147 138 125 119 136 185 209 115 106 103 106 103 102 108 116 123 124 115 108 108 102 85 75 75 76 76 76 75 73 74 77 79 77 73 67 60 55 54 54 55 57 56 58 62 63 61 62 60 60 62 63 63 64 65 65 64 62 60
43 16 48 92 132 174 121 114 146 193 224 316 355 47 75 8 346 87 128 211 168 146 145 136 132 134 141 149 152 142 136 147 154 168 172 142 106 88 90 91 89 90 90 96 107 106 100 94 86 78 76 78 79 78 78 78 75 74 77 82 82 77 72 67 63 61 62 62 64 65 65 68 69 68 67 65 64 67 69 70 72 71 69 68 66 65
56 34 49 96 115 97 93 105 80 316 277 306 1 74 81 29 34 143 204 198 147 145 151 142 139 144 150 154 156 131 102 122 135 149 152 131 101 86 87 86 83 79 78 94 103 98 91 86 82 78 77 82 85 84 83 84 79 74 76 81 83 81 77 74 70 67 66 65 65 67 69 72 76 76 75 74 72 71 72 74 76 76 74 73 73 71
110 74 38 85 111 90 93 109 103 343 276 299 306 127 116 90 100 205 172 129 133 142 144 137 140 145 142 133 116 109 114 117 125 133 126 113 106 98 90 86 81 74 86 106 107 100 94 90 84 78 76 82 89 90 92 93 87 81 80 81 83 85 82 78 74 71 70 68 67 67 68 72 76 79 80 81 80 77 74 73 75 76 75 75 74 73
146 117 74 101 124 104 79 90 119 158 239 284 287 283 119 150 178 141 113 117 129 137 136 133 131 127 122 113 109 118 122 120 121 121 112 107 108 103 97 94 85 72 89 102 102 98 96 92 85 80 75 75 82 87 91 95 93 89 86 84 86 90 87 83 80 77 75 74 72 69 69 71 74 77 79 80 82 81 77 74 73 73 73 73 72 72
170 147 151 189 205 113 107 116 153 239 327 347 92 108 87 100 105 104 106 109 110 116 122 120 115 116 119 118 118 121 121 121 123 124 119 115 110 104 102 104 97 86 94 101 100 98 96 91 86 84 80 76 77 80 82 86 90 93 93 90 92 96 93 89 87 85 82 81 78 75 73 72 72 74 76 78 81 80 77 74 73 72 71 71 71 70
321 118 119 112 45 79 101 132 173 92 34 47 76 84 80 80 79 85 97 100 95 100 106 109 114 120 122 122 122 122 122 124 125 124 121 117 112 109 109 107 100 94 96 103 107 105 99 93 90 88 85 82 81 80 80 82 83 88 96 100 98 97 97 95 93 90 89 87 85 82 79 76 74 72 72 74 76 77 75 73 71 70 70 71 71 70
132 108 95 100 105 85 67 49 69 78 64 57 62 67 75 81 83 86 93 96 99 104 108 114 120 124 125 126 125 122 122 124 121 118 117 115 112 112 109 103 96 92 92 99 107 108 103 100 100 97 93 89 87 85 85 84 81 84 98 109 106 99 97 97 96 95 94 91 90 88 85 82 79 76 73 72 72 73 74 74 73 71 70 70 71 71
141 103 83 105 134 105 70 51 70 77 76 70 67 64 68 77 82 85 92 97 101 105 111 118 120 121 123 125 125 124 124 124 120 118 119 120 117 112 104 96 90 87 87 96 105 109 109 109 110 109 106 104 101 97 95 92 88 87 97 110 113 109 105 101 99 100 99 95 92 91 89 87 84 81 78 76 74 73 73 74 75 75 73 72 73 73
138 104 85 82 97 91 102 113 87 76 73 71 71 70 72 79 83 83 89 96 100 104 108 112 116 120 120 120 124 126 127 127 127 127 127 124 119 115 111 104 97 92 94 107 117 121 123 123 122 120 117 115 113 110 105 100 97 94 95 100 105 110 114 112 107 103 100 97 95 92 91 90 88 85 82 79 77 76 75 74 74 74 75 75 74 75
29 99 94 103 102 94 103 113 100 88 78 70 77 84 83 88 92 92 94 99 104 109 110 108 109 115 119 122 125 126 125 126 128 128 127 125 124 124 120 112 105 101 103 113 123 127 126 122 121 122 123 124 124 123 117 111 106 103 98 94 91 92 96 104 112 113 106 100 97 96 93 91 90 89 88 85 82 80 78 77 76 76 77 76 74 75
39 78 102 120 118 130 161 145 126 115 107 99 98 97 95 97 100 102 106 111 114 115 115 111 109 110 115 122 127 127 125 126 128 127 125 125 127 126 121 115 111 109 109 111 113 111 105 99 96 105 120 128 127 122 119 117 115 110 104 100 95 90 86 86 95 111 118 110 102 99 98 96 95 94 93 91 90 87 85 83 81 80 80 80 78 77
38 59 171 142 136 163 167 148 126 108 110 113 109 104 103 106 108 112 117 118 117 116 116 117 118 118 118 122 125 126 125 125 129 129 123 120 123 122 120 118 115 112 110 107 104 101 98 94 90 95 108 116 109 100 98 102 105 106 104 102 98 95 91 85 84 94 112 121 117 108 101 99 99 100 99 97 96 94 92 90 87 85 84 83 81 79
Height
738 747 749 748 747 745 742 742 744 744 742 742 742 744 745 748 747 735 728 724 722 737 743 739 741 739 736 733 729 728 726 726 730 738 747 750 751 754 756 759 762 765 768 770 774 777 780 783 786 788 790 792 794 795 797 798 799 800 801 803 804 806 807 808 810 811 813 814 815 815 816 815 814 814 814 814 814 813 812 811 810 810 810 811 811 811
738 748 747 740 740 738 738 740 741 742 741 740 742 745 744 743 740 728 724 723 718 732 740 735 738 738 734 731 729 729 729 728 728 736 746 749 751 754 756 761 764 766 767 769 775 778 781 783 786 788 790 793 795 796 798 798 799 801 802 803 804 805 807 808 809 811 812 813 814 814 814 814 815 814 814 813 812 811 810 810 809 810 811 811 811 811
744 746 740 735 734 734 737 738 740 743 741 742 742 746 750 742 734 725 719 719 717 728 737 734 738 737 731 728 728 728 729 727 726 732 741 745 751 756 758 762 765 767 768 770 775 778 781 783 786 789 790 793 796 797 798 799 800 801 802 803 804 805 806 807 809 810 811 812 813 813 814 814 814 814 813 812 810 809 809 809 809 810 810 810 810 809
748 741 733 731 732 735 739 737 740 743 742 743 743 748 751 740 737 733 722 719 718 723 729 731 735 736 731 728 726 725 725 724 723 728 736 740 747 753 755 759 762 765 768 771 776 779 781 784 786 789 791 793 796 797 798 799 800 801 802 804 804 806 806 807 809 809 810 811 812 813 813 814 814 814 814 812 810 809 809 809 809 809 809 809 808 808
740 732 727 729 731 734 739 738 739 745 745 742 740 745 745 737 735 730 721 720 721 722 723 728 742 742 732 733 731 724 724 724 722 729 740 743 746 751 756 759 760 762 766 771 776 779 780 784 787 789 791 793 795 797 799 799 800 801 802 804 804 805 806 807 808 809 810 811 812 812 813 814 814 814 814 811 809 809 809 809 809 808 807 807 807 806
731 724 723 728 731 731 736 737 735 740 747 744 737 735 735 732 730 725 720 725 736 740 726 728 756 756 735 734 735 728 729 729 725 734 746 749 749 754 760 763 764 765 768 771 775 779 781 784 786 789 791 793 795 797 798 799 800 801 802 803 804 805 806 807 808 809 810 810 811 812 813 813 814 814 812 810 809 809 809 808 808 807 807 806 806 805
724 718 719 725 728 729 733 734 729 731 744 747 733 725 726 727 728 727 726 732 747 748 727 723 751 759 741 737 735 730 732 732 732 742 749 751 754 757 761 765 767 769 772 775 778 780 782 784 786 789 790 792 795 797 798 799 800 802 803 804 804 805 806 807 808 809 810 811 811 812 812 813 813 813 812 810 810 809 809 808 808 807 806 805 804 804
717 717 719 720 724 728 731 732 724 723 738 740 723 719 724 723 726 728 728 733 736 734 728 721 733 751 751 742 734 729 733 737 741 751 754 753 756 758 762 765 767 771 773 776 780 781 783 784 786 788 790 792 794 796 798 799 801 802 803 804 804 805 805 806 808 808 809 810 811 811 811 812 812 812 811 810 810 809 809 808 807 806 805 804 803 804
712 717 717 716 723 727 725 723 718 718 729 728 716 716 720 719 722 723 727 732 726 729 743 733 728 752 759 742 733 731 736 744 747 754 757 755 757 760 763 766 768 771 773 776 780 782 784 785 787 788 790 793 795 796 798 800 801 802 803 804 804 805 805 806 807 808 808 809 810 810 810 811 811 810 810 810 809 809 808 807 807 805 804 803 803 805
709 710 708 710 719 721 717 714 712 716 721 717 713 715 715 715 718 721 727 732 729 738 753 741 732 753 760 744 740 741 741 746 748 754 757 757 760 763 766 768 769 772 775 777 780 783 785 787 788 789 791 793 795 796 798 799 800 802 802 803 804 805 805 806 806 807 808 808 809 809 809 810 810 809 809 809 809 808 808 807 806 805 804 802 804 806
703 701 701 703 707 708 709 709 708 711 713 711 715 718 720 719 717 722 725 728 742 754 752 738 729 746 760 747 740 741 737 737 747 759 761 758 762 767 769 771 771 773 776 778 780 783 787 788 789 790 792 793 795 796 798 798 800 801 802 803 804 805 805 805 806 806 807 808 808 808 809 809 809 809 809 808 808 808 808 807 805 805 803 802 803 805
702 703 702 697 696 698 704 708 706 705 707 711 717 722 732 732 726 732 733 734 757 765 748 732 725 740 758 751 739 735 727 729 743 754 758 759 763 767 771 774 774 775 776 777 781 784 786 788 790 791 792 793 794 796 797 798 800 801 802 803 804 804 805 805 805 806 806 807 807 808 808 808 808 808 808 808 808 808 807 806 805 804 803 802 802 803
708 704 700 695 692 693 703 711 710 707 707 713 719 727 743 749 746 752 752 751 761 757 738 727 728 741 753 753 747 734 726 732 739 742 748 753 759 765 770 774 776 778 779 779 782 784 786 788 790 791 792 793 794 796 797 798 800 801 802 803 803 804 804 804 805 805 806 806 806 807 807 807 807 807 807 807 807 807 806 805 804 802 802 801 801 801
719 708 698 698 695 689 697 711 717 715 713 717 721 730 746 754 760 766 761 758 759 749 731 721 728 745 752 753 753 740 732 738 740 741 746 750 755 762 767 772 776 779 781 782 784 786 788 790 791 792 793 793 795 797 798 798 800 801 802 803 803 804 804 804 804 804 805 805 805 806 806 806 806 806 806 806 806 805 804 803 802 801 801 800 800 799
727 722 703 698 696 689 692 700 705 709 712 714 711 719 736 741 749 760 759 758 759 749 733 724 736 758 766 765 760 749 741 742 745 749 752 754 757 760 764 771 776 781 783 784 786 788 790 791 792 793 793 794 795 798 799 799 800 801 802 803 803 804 805 804 804 804 804 805 805 805 805 805 805 805 805 805 804 803 803 802 801 800 799 799 798 796
721 721 698 688 687 685 691 691 689 700 714 712 704 715 730 726 728 740 743 742 746 747 742 747 762 770 770 768 761 756 754 751 754 757 757 761 762 762 767 772 776 781 783 784 787 790 791 792 792 793 794 795 797 799 800 800 801 802 802 803 804 805 805 805 805 805 804 805 805 804 804 804 804 804 804 803 802 802 801 800 799 798 798 797 796 795
718 715 691 685 686 681 686 687 683 696 711 711 711 720 718 709 715 733 738 733 740 752 754 762 778 775 769 770 766 764 765 763 763 762 761 764 765 767 771 774 776 780 782 784 787 789 791 792 793 794 796 797 799 800 801 802 802 802 803 804 805 805 805 805 805 805 805 805 805 804 804 803 803 803 802 802 801 800 799 799 798 797 796 795 794 793
711 713 692 684 691 684 680 685 684 686 696 708 717 714 706 708 714 726 741 745 751 762 757 760 776 776 773 779 777 773 773 771 769 767 767 768 769 772 774 776 779 781 784 786 787 788 791 793 795 796 798 799 801 802 803 803 803 804 805 805 806 806 806 806 806 805 805 805 805 804 803 803 803 802 802 801 800 799 798 797 796 796 794 794 793 791
702 716 702 684 689 687 678 687 695 689 688 699 706 700 705 726 731 728 740 751 759 765 759 765 776 771 769 776 777 775 774 775 773 771 772 773 774 776 778 780 782 784 787 789 790 791 793 796 797 797 799 801 803 804 805 805 805 805 806 806 806 807 806 806 806 805 805 805 804 804 803 802 802 801 801 800 799 798 796 796 795 794 793 792 791 789
697 716 715 692 687 688 684 693 706 703 694 695 701 699 703 718 726 726 729 736 751 760 760 773 783 770 762 766 767 766 765 768 771 772 774 776 777 780 781 783 785 787 789 790 791 793 795 797 798 799 801 803 804 806 805 806 806 806 806 806 806 806 805 805 805 805 805 805 804 803 802 802 801 800 800 799 798 797 795 795 793 792 791 790 789 787
698 713 720 705 695 699 699 697 702 706 703 704 712 713 710 710 712 719 720 719 734 750 757 774 784 771 759 757 757 759 761 764 769 771 774 776 778 781 782 785 787 788 790 791 793 795 796 798 800 801 803 803 804 805 805 805 806 806 806 806 805 805 805 805 805 805 805 804 804 803 802 801 801 800 799 798 797 796 795 794 792 791 790 788 787 785
701 712 719 715 712 715 709 693 689 694 698 703 711 711 710 711 714 726 732 719 718 733 742 755 770 768 759 752 751 755 759 764 768 770 775 778 779 781 783 785 787 788 791 793 794 795 797 799 800 801 802 802 803 804 804 805 805 805 805 805 805 805 805 805 805 805 805 804 804 803 802 802 801 800 799 797 796 795 794 793 791 790 789 787 786 784
693 705 717 720 718 716 708 694 689 689 689 694 700 699 700 705 710 726 737 726 718 723 726 736 756 765 759 750 747 753 758 763 768 770 774 779 780 781 784 785 787 789 792 794 794 795 797 798 800 801 801 802 803 803 804 805 804 805 805 805 805 805 804 805 805 805 805 805 804 803 802 802 800 799 798 796 795 794 793 792 791 789 788 786 784 783
690 704 718 723 719 711 705 698 690 686 688 696 698 693 695 700 701 709 717 716 720 724 723 738 762 768 761 753 751 758 764 768 773 773 775 779 781 783 785 787 788 790 792 794 795 795 796 798 799 800 801 802 802 803 803 804 804 804 804 804 805 804 804 804 804 805 805 805 804 803 802 801 800 799 798 796 795 794 793 792 791 789 788 786 784 782
697 708 717 730 736 729 722 717 706 694 694 701 700 692 692 695 695 700 704 710 722 722 719 743 769 770 763 760 759 764 771 775 778 778 778 781 783 785 787 789 789 790 793 795 796 796 797 798 799 800 801 801 802 802 803 803 804 804 804 804 804 804 805 805 805 805 805 804 804 803 802 801 800 799 797 796 795 794 793 792 791 789 788 786 784 782
699 708 713 730 746 744 738 733 720 706 700 701 700 696 693 693 695 702 709 719 728 724 725 748 768 769 766 765 766 768 772 777 781 781 782 783 785 788 789 790 791 793 795 796 796 797 798 799 800 800 801 802 802 802 803 803 804 804 804 805 804 805 805 805 806 805 805 805 804 803 802 801 800 799 798 797 796 795 794 793 791 790 788 786 784 783
698 707 707 717 731 732 730 723 711 706 708 708 705 701 698 695 695 702 713 721 723 729 745 755 755 763 771 770 771 774 775 779 782 783 786 787 788 789 790 792 794 795 796 796 797 798 799 800 801 802 802 802 802 803 803 804 804 804 805 805 805 806 806 806 806 806 805 805 804 804 803 802 801 800 799 798 797 796 795 793 792 790 788 787 785 783
699 708 706 709 716 716 715 711 705 707 714 716 713 709 704 699 697 704 714 715 714 730 757 758 747 757 769 768 770 776 776 779 782 783 786 788 789 790 791 793 796 797 797 798 799 800 801 803 803 803 803 803 803 803 803 804 804 804 805 805 806 807 807 807 807 806 806 805 805 804 803 803 802 801 800 799 798 797 795 794 793 791 789 787 786 784
698 710 707 707 713 712 709 708 707 710 717 722 724 720 712 705 702 707 712 708 706 723 746 752 749 755 763 765 769 772 773 776 780 782 784 786 789 791 792 794 796 798 799 800 801 802 803 805 805 804 805 804 803 804 804 805 805 804 805 806 806 807 808 808 807 807 806 806 806 806 805 804 803 802 802 801 799 798 797 795 794 792 790 788 787 785
698 714 712 708 715 716 712 711 712 714 720 729 732 727 719 714 712 715 717 711 710 723 737 745 752 757 761 764 766 768 770 774 778 782 784 787 791 792 792 795 797 799 801 802 803 805 805 806 806 805 805 805 805 805 805 805 806 806 806 807 808 808 808 808 808 807 807 807 807 807 806 805 804 804 803 802 801 800 798 797 795 793 791 789 788 787
697 718 720 714 722 725 718 720 725 725 727 735 740 733 723 720 719 722 724 722 724 736 743 748 757 765 766 766 767 769 771 773 778 784 786 789 791 792 793 796 798 800 802 803 805 807 807 808 808 807 807 807 807 807 806 807 807 807 807 807 809 809 809 809 808 808 808 809 809 808 807 806 806 805 804 804 803 801 800 798 796 794 792 790 789 788
699 720 723 720 730 732 725 729 737 734 733 740 746 742 732 726 726 727 727 727 731 742 751 756 763 768 768 768 772 775 775 776 780 784 787 790 792 793 795 797 799 801 802 804 806 808 809 810 810 809 809 808 808 808 807 808 808 807 808 809 810 810 810 810 809 810 810 810 810 809 808 807 807 806 806 805 804 803 802 800 798 796 794 792 791 790
704 718 723 725 736 738 731 732 733 731 735 742 747 747 739 731 730 731 731 731 733 740 748 755 761 766 766 767 772 779 780 780 781 783 787 790 792 794 796 797 800 803 804 807 808 810 812 812 812 811 810 809 809 808 808 808 808 809 809 811 812 811 811 811 811 812 812 812 811 810 809 809 808 807 807 806 806 805 803 801 800 798 797 795 794 792
705 713 720 727 739 746 743 738 732 733 741 746 746 745 740 734 734 739 743 743 742 743 747 751 757 763 766 768 773 781 785 785 786 786 786 789 792 795 797 799 802 805 807 809 810 812 814 813 812 812 810 810 810 809 809 809 809 810 811 812 813 812 812 813 813 813 813 813 812 811 811 810 809 809 809 808 807 806 805 803 802 801 800 798 796 794
708 714 721 728 739 748 747 741 739 744 748 746 743 741 737 735 736 742 750 752 749 750 752 754 760 764 768 775 780 784 789 790 790 791 790 791 794 796 798 801 804 806 809 810 812 814 814 813 813 812 811 811 811 810 811 811 811 812 813 813 814 814 814 814 814 815 815 814 814 813 812 812 811 810 810 809 808 807 806 806 804 804 803 801 799 797
714 719 722 728 739 746 747 747 748 749 748 744 743 740 736 735 734 738 753 760 756 754 755 759 767 769 772 782 786 787 789 790 793 797 797 795 797 798 800 803 805 807 809 811 813 814 814 813 813 813 813 813 812 812 813 813 813 813 814 815 816 816 817 816 816 816 816 816 815 815 814 813 813 812 811 811 810 809 808 808 807 807 806 804 803 801
716 719 722 730 741 745 749 755 754 752 752 749 745 740 738 739 736 738 755 767 763 758 758 764 775 779 779 783 787 787 787 790 798 805 803 799 800 801 802 805 807 809 811 812 814 814 814 815 814 814 815 815 814 814 814 814 814 815 816 817 818 818 819 818 818 818 818 817 817 816 815 815 814 814 813 812 812 811 810 810 810 809 809 807 806 804
717 719 722 731 743 746 749 757 758 756 756 751 744 738 736 740 739 737 753 770 769 764 764 766 774 782 783 785 787 786 785 792 805 811 807 804 803 803 805 807 809 811 812 813 814 814 815 816 815 816 817 817 816 816 816 816 816 817 818 819 820 820 821 820 821 821 820 819 819 818 817 817 816 815 815 814 814 813 812 812 812 812 811 810 809 808
722 725 725 731 743 745 744 750 754 754 752 748 744 741 739 742 742 740 752 769 772 769 769 770 774 780 783 785 785 782 784 795 808 812 809 806 805 805 807 809 810 812 813 814 815 815 816 816 817 818 818 817 818 818 817 818 818 818 820 821 822 822 823 823 823 823 822 821 820 820 819 818 818 817 816 816 816 815 815 814 814 814 814 813 812 811
728 731 731 734 743 743 740 746 752 751 750 748 746 745 744 744 746 748 754 763 767 770 772 774 776 779 782 784 784 782 785 795 805 810 808 806 807 808 809 811 812 813 814 814 815 816 816 817 818 819 819 819 819 819 819 820 820 821 822 823 824 824 825 826 826 825 824 823 821 821 820 819 819 819 818 818 818 817 817 817 817 817 816 816 815 814
734 736 737 739 743 742 741 749 754 753 751 748 745 745 745 745 748 752 752 754 761 769 772 773 776 779 781 783 784 786 789 794 801 806 806 807 809 810 811 812 813 814 814 815 816 816 817 818 819 819 820 820 820 821 821 822 822 823 824 824 825 827 827 829 829 827 826 824 823 822 822 821 821 821 820 821 820 820 820 820 820 820 819 819 818 817
736 740 741 742 745 745 745 750 755 755 750 746 744 743 743 747 751 752 750 752 760 767 770 772 775 778 780 784 787 790 794 797 802 805 806 808 811 812 812 813 814 815 815 816 816 817 818 819 820 821 821 822 822 823 823 824 824 824 825 826 827 829 830 831 831 829 828 827 826 825 824 824 823 823 823 823 822 822 822 823 823 822 822 822 821 819
731 738 744 745 746 748 749 750 754 756 750 744 745 746 745 748 751 750 751 756 761 764 768 771 774 778 783 787 790 793 795 799 803 806 808 810 811 812 814 815 815 816 816 816 818 819 819 820 821 822 823 823 824 824 825 825 825 826 827 828 829 830 831 832 832 831 830 829 828 828 828 827 827 826 826 825 824 824 824 825 825 825 824 824 823 822
727 734 743 746 744 745 749 753 754 754 750 745 745 749 749 748 748 749 752 759 764 765 768 772 777 781 784 788 792 795 798 801 805 807 809 811 813 814 815 817 817 817 817 817 819 820 821 822 823 823 824 825 825 826 826 826 827 828 829 830 831 832 833 833 833 833 832 831 831 831 831 830 830 829 829 828 827 826 826 827 827 827 827 827 826 825
728 728 732 742 748 746 749 755 754 753 751 747 747 750 750 750 751 753 757 763 768 770 771 775 781 784 785 789 793 797 800 803 806 808 810 812 814 815 817 818 818 818 818 819 820 822 823 824 824 825 826 826 827 828 828 828 829 829 831 832 834 834 834 835 834 833 833 833 833 833 833 833 833 832 832 831 830 829 829 830 830 830 830 830 829 829
731 728 729 742 750 748 750 755 753 751 753 752 750 752 753 754 757 758 761 767 771 773 775 779 783 785 787 790 793 798 802 805 806 809 812 813 815 817 817 818 819 818 819 820 822 823 824 825 826 827 827 828 829 829 830 830 831 831 833 834 835 836 836 836 835 835 835 835 836 836 836 835 835 835 835 834 834 833 833 833 833 833 833 833 833 833
730 729 733 742 748 750 756 760 755 753 756 755 755 757 757 758 761 763 766 771 774 776 779 781 784 788 790 792 794 799 803 806 807 811 814 815 816 818 818 819 819 819 821 822 823 825 826 827 828 829 829 830 830 830 831 832 832 833 835 836 837 837 838 837 837 837 837 837 838 838 838 837 837 838 838 838 837 837 837 837 837 836 836 837 837 837
731 729 737 746 750 754 760 760 756 756 758 757 758 762 762 763 766 767 769 773 776 779 782 784 786 789 792 795 798 800 803 807 809 811 814 816 818 819 819 820 821 821 822 824 825 826 827 828 830 830 830 830 831 832 833 833 834 835 836 837 838 839 839 839 839 839 840 840 840 840 840 840 839 840 840 840 840 840 840 841 841 840 840 841 841 841
729 732 742 750 756 760 762 760 758 760 763 763 763 765 766 767 769 771 774 776 779 782 785 787 790 792 794 798 800 801 804 808 810 811 814 816 818 820 820 821 822 823 824 825 826 827 828 830 830 830 830 831 832 834 834 835 836 837 837 838 839 839 840 840 840 841 842 842 842 842 842 842 842 842 842 842 843 843 844 844 845 844 844 845 845 845
737 743 749 754 761 765 762 759 758 762 767 769 767 767 769 770 772 775 778 780 782 785 787 790 793 796 798 800 802 803 806 808 811 813 815 816 818 820 821 822 823 824 825 826 827 828 828 829 830 830 831 832 834 835 836 837 837 838 839 840 840 840 841 841 841 842 844 844 844 845 844 844 845 845 845 845 845 846 847 848 848 848 848 848 849 849
748 750 748 749 756 759 756 756 757 762 768 770 769 770 772 772 775 779 781 783 785 787 789 792 795 798 800 803 804 806 807 809 811 813 815 817 819 820 821 822 823 824 826 827 827 828 828 829 830 830 832 834 835 836 837 837 838 839 840 841 841 841 842 842 842 843 844 845 846 846 846 846 847 847 847 848 848 848 849 850 851 851 851 852 852 852